[Date Prev][Date Next][Thread Prev][Thread Next] - [Date Index][Thread Index][Author Index]
2 Line ISS Keps 8-11
- Subject: [sarex] 2 Line ISS Keps 8-11
- From: "Dave Larsen PhD" <doc@xxxxxxxxxxx>
- Date: Sun, 11 Aug 2002 03:04:08 -0700
ISS
1 25544U 98067A 02223.11547454 .00023041 00000-0 31174-3 0 338
2 25544 51.6375 137.2536 0017652 126.6120 80.7491 15.57440525212591
----
Via the sarex mailing list at AMSAT.ORG courtesy of AMSAT-NA.
To unsubscribe, send "unsubscribe sarex" to Majordomo@amsat.org
AMSAT Home